[[{"header":{"parameterUnit":"m.s-1","parameterCategory":2,"la1":30.2992,"la2":30.254,"lo1":-89.0895,"lo2":-89.0443,"dy":0.0025,"dx":0.0025,"nx":19,"ny":19,"refTime":"2026-05-17T03:00:00:Z","depth":"0","parameterNumber":2,"parameterNumberName":"U-component_of_CURRENTS"},"data":[0,0,0,0.2086,0.2088,0.2165,0.2166,0.2225,0.2225,0,0,0,0,0,0,0,0,0,0,0,0.2055,0.2056,0.2086,0.2088,0.2165,0.2166,0.2224,0.2225,0,0,0,0,0,0,0,0,0,0,0,0.2055,0.2055,0.2056,0.2089,0.2165,0.2166,0.2224,0.2175,0,0,0,0,0,0,0,0,0,0,0.2105,0.2078,0.2055,0.2056,0.2089,0.2165,0.2166,0.2173,0.2178,0.2179,0,0.2193,0,0.2214,0.2228,0.2229,0,0,0,0.2085,0.2074,0.2101,0.2056,0.209,0.2165,0.213,0.2176,0.2182,0.2186,0.2194,0.2197,0.2215,0.2229,0.2229,0.2356,0.2357,0,0,0.2081,0.2063,0.2098,0.2105,0.2112,0.2127,0.2132,0.218,0.2182,0.2195,0.2199,0.2216,0.2229,0.2229,0.2355,0.2356,0,0,0,0.2071,0.2059,0.2086,0.2102,0.2121,0.213,0.2135,0.218,0.2191,0.22,0.2216,0.2229,0.223,0.2354,0.2356,0.2537,0,0,0,0.2068,0.2054,0.2084,0.2073,0.212,0.2156,0.2133,0.2187,0.2194,0.2216,0.2229,0.223,0.2353,0.2355,0.2529,0.259,0,0,0,0.2051,0.2052,0.2063,0.2072,0.2109,0.2156,0.217,0.2189,0.2204,0.2229,0.2231,0.2352,0.2355,0.2523,0.2579,0.2685,0,0,0,0.2027,0.2037,0.2063,0.2081,0.2108,0.2165,0.217,0.2198,0.2217,0.223,0.2353,0.2355,0.2521,0.2572,0.2678,0.2644,0.2675,0,0,0.2024,0.2036,0.2047,0.2073,0.2131,0.2154,0.2265,0.2282,0.2262,0.2331,0.2334,0.2532,0.2578,0.2684,0.2784,0.281,0,0,0,0.2036,0.2052,0.2067,0.2114,0.2158,0.2283,0.2299,0.2364,0.2467,0.2288,0.253,0.2553,0.2615,0.2579,0.26,0.2672,0.2367,0.2366,0.2366,0.2009,0.2055,0.2111,0.2188,0.2248,0.2372,0.2492,0.259,0.2538,0.2631,0.2701,0.2901,0.2866,0.2881,0.2957,0.271,0.271,0.2711,0.2711,0.2046,0.2115,0.2193,0.2275,0.2415,0.2534,0.2734,0.2778,0.2974,0.2886,0.2937,0.277,0.2915,0.2987,0.2723,0.2721,0.2719,0.2718,0.2717,0.2066,0.2126,0.2179,0.2328,0.25,0.2647,0.2837,0.2978,0.3114,0.321,0.313,0.3125,0.3186,0.3229,0.323,0.323,0.3231,0.3232,0.3232,0.2104,0.2166,0.2219,0.2377,0.2448,0.2614,0.2882,0.3026,0.3238,0.3312,0.3311,0.3267,0.3058,0.3035,0.3244,0.3242,0.3241,0.3239,0.3239,0.215,0.2163,0.2216,0.2261,0.2393,0.2471,0.2738,0.3049,0.3255,0.3362,0.3518,0.3366,0.3299,0.3277,0.3258,0.3514,0.3514,0.3514,0.3514,0.2146,0.2175,0.2168,0.2168,0.2245,0.2381,0.255,0.2881,0.3355,0.3587,0.3678,0.3571,0.3556,0.3497,0.3471,0.3452,0.3751,0.3752,0.3752,0.2133,0.2148,0.2088,0.2101,0.2143,0.227,0.2381,0.2654,0.3402,0.3772,0.3805,0.3795,0.3642,0.3612,0.3506,0.3465,0.3425,0,0]},{"header":{"parameterUnit":"m.s-1","parameterCategory":2,"la1":30.2992,"la2":30.254,"lo1":-89.0895,"lo2":-89.0443,"dy":0.0025,"dx":0.0025,"nx":19,"ny":19,"refTime":"2026-05-17T03:00:00:Z","depth":"0","parameterNumber":3,"parameterNumberName":"V-component_of_CURRENTS"},"data":[0,0,0,-0.0118,-0.012,-0.023,-0.023,-0.0383,-0.0384,0,0,0,0,0,0,0,0,0,0,0,-0.0077,-0.0078,-0.0118,-0.012,-0.023,-0.023,-0.0383,-0.0384,0,0,0,0,0,0,0,0,0,0,0,-0.0077,-0.0078,-0.0078,-0.0121,-0.023,-0.023,-0.0383,-0.03,0,0,0,0,0,0,0,0,0,0,-0.0194,-0.0147,-0.0077,-0.0078,-0.0121,-0.0229,-0.023,-0.0296,-0.0305,-0.0333,0,-0.0341,0,-0.0363,-0.0394,-0.0394,0,0,0,-0.0133,-0.014,-0.0169,-0.0078,-0.0122,-0.0229,-0.0184,-0.0301,-0.0311,-0.0345,-0.0343,-0.0349,-0.0365,-0.0395,-0.0395,-0.0376,-0.0375,0,0,-0.0127,-0.0102,-0.0162,-0.0175,-0.0139,-0.018,-0.0187,-0.0307,-0.0313,-0.0343,-0.0352,-0.0368,-0.0396,-0.0397,-0.0377,-0.0376,0,0,0,-0.0101,-0.0098,-0.0125,-0.0169,-0.0186,-0.0183,-0.0191,-0.0308,-0.0317,-0.0354,-0.037,-0.0396,-0.0398,-0.0379,-0.0377,-0.0046,0,0,0,-0.0098,-0.0082,-0.0121,-0.0109,-0.0183,-0.0246,-0.0189,-0.0308,-0.0323,-0.0369,-0.0396,-0.0399,-0.038,-0.0378,-0.0058,0.0137,0,0,0,-0.0074,-0.008,-0.0088,-0.0107,-0.0149,-0.0245,-0.0261,-0.0312,-0.0332,-0.0394,-0.04,-0.0381,-0.0378,-0.0069,0.0116,0.0282,0,0,0,-0.0051,-0.0057,-0.0087,-0.0096,-0.0147,-0.0166,-0.026,-0.0306,-0.0352,-0.0397,-0.038,-0.0377,-0.0072,0.0103,0.0268,0.0301,0.0364,0,0,-0.0045,-0.0056,-0.006,-0.0089,-0.0048,-0.0153,-0.0066,-0.018,-0.031,-0.0348,-0.0348,-0.0054,0.0114,0.0279,0.0473,0.0532,0,0,0,-0.0048,-0.0021,-0.0029,-0.0006,-0.0044,0.0072,-0.0066,-0.0074,-0.0075,-0.0322,-0.0086,0.0009,0.0103,0.0093,0.014,-0.0116,-0.0363,-0.0363,-0.0364,0.0039,0.0043,0.0134,0.0176,0.0194,0.0207,0.0292,0.0269,0.0067,0.0135,0.0254,0.0577,0.0568,0.0603,0.034,0.0194,0.0196,0.0197,0.0197,0.0201,0.0344,0.0372,0.0484,0.0588,0.0682,0.0722,0.0658,0.0765,0.0541,0.0614,0.0411,0.0675,0.0374,0.0218,0.0214,0.0212,0.021,0.0208,0.0385,0.0494,0.0542,0.0781,0.1004,0.1048,0.127,0.1215,0.1107,0.121,0.1089,0.1081,0.0838,0.1202,0.1204,0.1206,0.1207,0.1208,0.1209,0.0644,0.0706,0.089,0.1111,0.1266,0.1477,0.1591,0.165,0.163,0.1489,0.1486,0.0924,0.0882,0.0867,0.1235,0.123,0.1227,0.1224,0.1223,0.0978,0.0968,0.1201,0.135,0.1676,0.1892,0.1969,0.2085,0.2107,0.2121,0.1468,0.1603,0.1502,0.1458,0.1453,0.1951,0.1951,0.1951,0.1951,0.1196,0.1217,0.1459,0.1654,0.1926,0.2075,0.2365,0.2442,0.2102,0.1829,0.1625,0.1351,0.1332,0.12,0.1162,0.114,0.1548,0.1547,0.1546,0.1426,0.1432,0.1608,0.1744,0.2012,0.2244,0.2537,0.2687,0.2032,0.1497,0.1283,0.1301,0.085,0.0841,0.0573,0.0541,0.048,0,0]}],[{"header":{"parameterUnit":"m.s-1","parameterCategory":2,"la1":30.2992,"la2":30.254,"lo1":-89.0895,"lo2":-89.0443,"dy":0.0025,"dx":0.0025,"nx":19,"ny":19,"refTime":"2026-05-17T03:00:00:Z","depth":"2","parameterNumber":2,"parameterNumberName":"U-component_of_CURRENTS"},"data":[0,0,0,0.2146,0.2148,0.2226,0.2226,0.2288,0.2288,0,0,0,0,0,0,0,0,0,0,0,0.2115,0.2116,0.2146,0.2148,0.2226,0.2226,0.2287,0.2288,0,0,0,0,0,0,0,0,0,0,0,0.2115,0.2116,0.2116,0.2148,0.2226,0.2226,0.2287,0.2237,0,0,0,0,0,0,0,0,0,0,0.2166,0.2139,0.2115,0.2116,0.2149,0.2226,0.2226,0.2235,0.224,0.2242,0,0.2257,0,0.2277,0.2292,0.2292,0,0,0,0.2145,0.2135,0.2163,0.2116,0.215,0.2226,0.219,0.2238,0.2244,0.2249,0.2258,0.2261,0.2278,0.2292,0.2292,0.2423,0.2424,0,0,0.214,0.2122,0.2159,0.2166,0.2173,0.2187,0.2192,0.2242,0.2244,0.2259,0.2263,0.2279,0.2292,0.2293,0.2422,0.2424,0,0,0,0.213,0.2119,0.2146,0.2163,0.2182,0.219,0.2195,0.2242,0.2254,0.2264,0.228,0.2293,0.2293,0.2421,0.2423,0.2606,0,0,0,0.2127,0.2114,0.2144,0.2133,0.2182,0.2218,0.2194,0.225,0.2257,0.2279,0.2293,0.2294,0.242,0.2422,0.2599,0.2645,0,0,0,0.2111,0.2112,0.2124,0.2132,0.2169,0.2218,0.2232,0.2252,0.2266,0.2292,0.2294,0.2419,0.2422,0.2592,0.2634,0.2764,0,0,0,0.2086,0.2096,0.2123,0.2141,0.2169,0.2229,0.2232,0.2261,0.2281,0.2293,0.242,0.2423,0.259,0.2628,0.2756,0.2569,0.2588,0,0,0.2082,0.2095,0.2107,0.2133,0.2195,0.2217,0.2334,0.2351,0.2327,0.2397,0.2401,0.2601,0.2633,0.2762,0.2712,0.2727,0,0,0,0.2095,0.2113,0.2129,0.2179,0.2224,0.2355,0.2372,0.2441,0.2543,0.2354,0.26,0.2613,0.269,0.2561,0.2574,0.2435,0.2434,0.2434,0.2434,0.2069,0.2116,0.2178,0.226,0.2321,0.2452,0.2576,0.268,0.262,0.2715,0.2765,0.2982,0.2846,0.2853,0.2781,0.2782,0.2783,0.2784,0.2784,0.2113,0.2189,0.2268,0.2355,0.25,0.2622,0.283,0.2873,0.3062,0.2962,0.3029,0.2759,0.2877,0.2799,0.2796,0.2794,0.2792,0.2791,0.279,0.2139,0.2203,0.2259,0.2418,0.2597,0.2743,0.2956,0.3087,0.3201,0.3291,0.3116,0.3109,0.3091,0.3319,0.332,0.332,0.3321,0.3322,0.3322,0.2184,0.2252,0.2323,0.2481,0.2569,0.2759,0.3011,0.3148,0.3267,0.3276,0.3274,0.3161,0.3144,0.312,0.3335,0.3333,0.3331,0.333,0.3329,0.2238,0.2261,0.2342,0.241,0.2599,0.2695,0.2927,0.3113,0.3292,0.3326,0.3283,0.328,0.3197,0.3181,0.3157,0.3369,0.3369,0.3369,0.3369,0.2244,0.2278,0.2348,0.2413,0.2543,0.2664,0.2704,0.2727,0.2934,0.2943,0.296,0.2769,0.2777,0.2659,0.2655,0.2614,0.2686,0.2685,0.2683,0.2239,0.2275,0.2293,0.2384,0.2491,0.2602,0.2451,0.2214,0.2362,0.2652,0.2793,0.3333,0.3092,0.309,0.2931,0.2916,0.2859,0,0]},{"header":{"parameterUnit":"m.s-1","parameterCategory":2,"la1":30.2992,"la2":30.254,"lo1":-89.0895,"lo2":-89.0443,"dy":0.0025,"dx":0.0025,"nx":19,"ny":19,"refTime":"2026-05-17T03:00:00:Z","depth":"2","parameterNumber":3,"parameterNumberName":"V-component_of_CURRENTS"},"data":[0,0,0,-0.0177,-0.0179,-0.0286,-0.0287,-0.0436,-0.0437,0,0,0,0,0,0,0,0,0,0,0,-0.0137,-0.0138,-0.0177,-0.0179,-0.0286,-0.0287,-0.0436,-0.0437,0,0,0,0,0,0,0,0,0,0,0,-0.0137,-0.0138,-0.0138,-0.018,-0.0286,-0.0287,-0.0435,-0.0355,0,0,0,0,0,0,0,0,0,0,-0.0251,-0.0206,-0.0138,-0.0138,-0.018,-0.0286,-0.0287,-0.0351,-0.036,-0.0387,0,-0.0394,0,-0.0415,-0.0446,-0.0447,0,0,0,-0.0193,-0.0198,-0.0227,-0.0138,-0.0181,-0.0286,-0.0242,-0.0356,-0.0366,-0.0399,-0.0396,-0.0402,-0.0418,-0.0447,-0.0448,-0.0441,-0.044,0,0,-0.0187,-0.0162,-0.022,-0.0233,-0.0197,-0.0238,-0.0245,-0.0362,-0.0368,-0.0396,-0.0405,-0.042,-0.0448,-0.0449,-0.0442,-0.044,0,0,0,-0.0161,-0.0158,-0.0184,-0.0226,-0.0243,-0.0241,-0.0249,-0.0363,-0.0371,-0.0407,-0.0422,-0.0449,-0.045,-0.0443,-0.0441,-0.0146,0,0,0,-0.0158,-0.0142,-0.0181,-0.0168,-0.024,-0.0302,-0.0246,-0.0363,-0.0377,-0.0421,-0.0449,-0.0452,-0.0444,-0.0442,-0.0157,-0.0045,0,0,0,-0.0135,-0.014,-0.0148,-0.0166,-0.0207,-0.03,-0.0316,-0.0367,-0.0386,-0.0447,-0.0452,-0.0445,-0.0443,-0.0166,-0.0062,-0.0124,0,0,0,-0.0112,-0.0116,-0.0147,-0.0153,-0.0205,-0.0224,-0.0316,-0.0359,-0.0403,-0.045,-0.0444,-0.0441,-0.0169,-0.0072,-0.0131,-0.0307,-0.0288,0,0,-0.0103,-0.0114,-0.0116,-0.0146,-0.0111,-0.0212,-0.0138,-0.0247,-0.0369,-0.0412,-0.0413,-0.0153,-0.0063,-0.0126,-0.0157,-0.0143,0,0,0,-0.0103,-0.008,-0.0087,-0.007,-0.0107,-0.002,-0.0141,-0.0153,-0.0165,-0.0381,-0.0184,-0.0138,-0.0187,-0.0308,-0.0296,-0.0429,-0.0429,-0.043,-0.043,-0.002,-0.002,0.0061,0.0091,0.0102,0.01,0.015,0.0119,-0.0036,0.002,0.0083,0.0211,0.0093,0.0097,0.0063,0.0065,0.0066,0.0066,0.0067,0.0121,0.0234,0.0265,0.0363,0.0441,0.0516,0.0515,0.0454,0.043,0.0331,0.0266,-0.0013,0.0127,0.009,0.0086,0.0082,0.008,0.0078,0.0077,0.0279,0.0359,0.0417,0.0607,0.0774,0.08,0.0867,0.0815,0.0681,0.0685,0.0319,0.0311,0.0319,0.0575,0.0575,0.0576,0.0576,0.0576,0.0576,0.0471,0.0535,0.0633,0.0841,0.0912,0.1026,0.1025,0.0931,0.0714,0.0587,0.0581,0.0377,0.0361,0.034,0.0581,0.0581,0.058,0.0579,0.0579,0.0594,0.0638,0.0768,0.083,0.0967,0.0992,0.0989,0.0767,0.0656,0.0494,0.046,0.0461,0.0299,0.0283,0.0256,0.046,0.046,0.046,0.046,0.0634,0.0691,0.0766,0.0796,0.0887,0.0921,0.0766,0.0658,0.0487,0.0416,0.0419,0.0342,0.0345,0.0178,0.0165,0.0131,0.0305,0.0305,0.0305,0.0579,0.0664,0.0647,0.0766,0.0814,0.0792,0.0691,0.0653,0.0448,0.0311,0.0513,0.0426,0.0313,0.0319,0.005,0.0036,-0.0025,0,0]}],[{"header":{"parameterUnit":"m.s-1","parameterCategory":2,"la1":30.2992,"la2":30.254,"lo1":-89.0895,"lo2":-89.0443,"dy":0.0025,"dx":0.0025,"nx":19,"ny":19,"refTime":"2026-05-17T03:00:00:Z","depth":"4","parameterNumber":2,"parameterNumberName":"U-component_of_CURRENTS"},"data":[0,0,0,0.1121,0.1126,0.1227,0.1227,0.1424,0.1426,0,0,0,0,0,0,0,0,0,0,0,0.1031,0.1031,0.1121,0.1126,0.1228,0.1227,0.1423,0.1426,0,0,0,0,0,0,0,0,0,0,0,0.103,0.1031,0.1032,0.1127,0.1228,0.1227,0.1422,0.1315,0,0,0,0,0,0,0,0,0,0,0.1201,0.1159,0.1031,0.1032,0.1128,0.1228,0.1227,0.1308,0.1322,0.1415,0,0.1433,0,0.1491,0.1446,0.1448,0,0,0,0.1066,0.1147,0.117,0.1032,0.113,0.1228,0.1165,0.1315,0.133,0.1434,0.1436,0.1445,0.1494,0.1448,0.145,0.1778,0.1779,0,0,0.106,0.1059,0.1158,0.1179,0.1164,0.1162,0.1169,0.1322,0.1349,0.1437,0.145,0.1498,0.145,0.1453,0.1777,0.1778,0,0,0,0.1085,0.1055,0.107,0.1169,0.1215,0.1166,0.1174,0.1339,0.1343,0.1453,0.15,0.1452,0.1456,0.1775,0.1777,0.1819,0,0,0,0.1078,0.1075,0.1067,0.1069,0.1212,0.1283,0.1188,0.1328,0.1351,0.1499,0.1452,0.1459,0.1774,0.1776,0.1815,0.176,0,0,0,0.1025,0.1072,0.108,0.1069,0.1146,0.1281,0.129,0.1332,0.1385,0.1448,0.146,0.1773,0.1776,0.1811,0.1757,0.1801,0,0,0,0.102,0.1025,0.108,0.1119,0.1146,0.1269,0.1289,0.1409,0.147,0.1454,0.1774,0.1777,0.181,0.1755,0.1799,0.1561,0,0,0,0.1011,0.1025,0.1045,0.1098,0.1194,0.125,0.1389,0.1485,0.1548,0.1714,0.1721,0.1816,0.1756,0.1801,0.1752,0,0,0,0,0.1033,0.1061,0.1104,0.1175,0.1268,0.1402,0.1516,0.1573,0.1722,0.1614,0.1869,0.1829,0.1856,0.1715,0.1792,0.1792,0.1792,0.1791,0.1791,0.1028,0.1067,0.1149,0.1253,0.1354,0.1524,0.1612,0.1726,0.1804,0.1893,0.1907,0.2015,0.1876,0.1994,0.1994,0.1994,0.1995,0.1995,0.1995,0.1057,0.1098,0.121,0.1322,0.1464,0.161,0.177,0.1829,0.1964,0.1989,0.2016,0.1821,0.2,0.1999,0.1999,0.1998,0.1997,0.1997,0.1997,0.104,0.1067,0.1171,0.132,0.1492,0.1674,0.1761,0.1871,0.1981,0.2018,0.1908,0.2035,0.1981,0.2078,0.2078,0.2078,0.2078,0.2078,0.2078,0.0967,0.1058,0.1141,0.1333,0.1426,0.1583,0.1753,0.1811,0.1931,0.1886,0.204,0.2042,0.2039,0.1987,0.2079,0.2078,0.2078,0.2078,0.2078,0.0889,0.0946,0.1019,0.111,0.1317,0.1396,0.16,0.1695,0.1742,0.1738,0.1829,0.1842,0.1788,0.1791,0.1727,0.1745,0.1742,0.1739,0,0.081,0.0856,0.0921,0.0981,0.1084,0.1267,0.1305,0.1432,0.1554,0.1511,0.1721,0.1819,0.1828,0.1763,0.1762,0.1683,0,0,0,0.0743,0.0778,0.078,0.089,0.0977,0.1128,0.1316,0.1314,0.1554,0.1534,0.1669,0.1688,0.1892,0.2079,0.2026,0.2023,0.1935,0,0]},{"header":{"parameterUnit":"m.s-1","parameterCategory":2,"la1":30.2992,"la2":30.254,"lo1":-89.0895,"lo2":-89.0443,"dy":0.0025,"dx":0.0025,"nx":19,"ny":19,"refTime":"2026-05-17T03:00:00:Z","depth":"4","parameterNumber":3,"parameterNumberName":"V-component_of_CURRENTS"},"data":[0,0,0,0.0137,0.0137,0.0175,0.0175,0.011,0.0109,0,0,0,0,0,0,0,0,0,0,0,0.0158,0.0158,0.0137,0.0137,0.0175,0.0175,0.011,0.0109,0,0,0,0,0,0,0,0,0,0,0,0.0157,0.0158,0.0159,0.0137,0.0175,0.0175,0.011,0.0116,0,0,0,0,0,0,0,0,0,0,0.0097,0.0106,0.0158,0.0159,0.0137,0.0174,0.0175,0.0118,0.0116,0.0053,0,0.0071,0,0.0059,0.0099,0.0099,0,0,0,0.0162,0.0108,0.0123,0.0159,0.0137,0.0174,0.0165,0.0118,0.0115,0.0049,0.007,0.0068,0.0058,0.0099,0.0098,-0.0055,-0.0056,0,0,0.016,0.0152,0.0126,0.0123,0.0159,0.0163,0.0166,0.0118,0.0113,0.007,0.0066,0.0057,0.0098,0.0097,-0.0055,-0.0056,0,0,0,0.0138,0.0151,0.017,0.0125,0.0125,0.0164,0.0167,0.0116,0.0125,0.0065,0.0056,0.0097,0.0095,-0.0054,-0.0055,-0.0127,0,0,0,0.0138,0.0135,0.017,0.0163,0.0127,0.0129,0.0166,0.0131,0.0124,0.0056,0.0097,0.0094,-0.0053,-0.0055,-0.0123,-0.0141,0,0,0,0.0154,0.0135,0.0147,0.0163,0.0165,0.013,0.0138,0.013,0.0115,0.0099,0.0093,-0.0053,-0.0054,-0.012,-0.0136,-0.0116,0,0,0,0.0135,0.0199,0.0148,0.0206,0.0165,0.0183,0.0139,0.0154,0.0151,0.0096,-0.0053,-0.0055,-0.0119,-0.0133,-0.0114,0.0066,0,0,0,0.0217,0.0208,0.0246,0.0201,0.0206,0.0179,0.0125,0.0107,0.0092,-0.004,-0.0042,-0.0125,-0.0136,-0.0116,-0.0027,0,0,0,0,0.0273,0.0263,0.0274,0.0247,0.0251,0.0135,0.0111,0.0061,-0.0036,0.0074,-0.0136,-0.014,-0.0125,-0.0015,-0.0063,-0.0062,-0.0062,-0.0062,-0.0062,0.0293,0.0283,0.0267,0.0209,0.0189,0.0095,0.0024,-0.0078,-0.0072,-0.0138,-0.0208,-0.0254,-0.0146,-0.0225,-0.0225,-0.0225,-0.0226,-0.0226,-0.0226,0.0262,0.0193,0.0153,0.0126,0.0021,-0.0056,-0.0179,-0.0202,-0.0305,-0.0302,-0.0283,-0.0112,-0.0233,-0.0232,-0.0231,-0.023,-0.0229,-0.0229,-0.0229,0.0159,0.0113,0.0109,0.0012,-0.0087,-0.0167,-0.0203,-0.0293,-0.036,-0.0378,-0.0193,-0.0282,-0.0261,-0.034,-0.034,-0.034,-0.034,-0.034,-0.034,0.0015,0.0009,-0.0003,-0.0106,-0.0101,-0.0142,-0.0201,-0.0196,-0.027,-0.0242,-0.0366,-0.0291,-0.0287,-0.0266,-0.034,-0.034,-0.034,-0.034,-0.034,-0.0105,-0.008,-0.0065,-0.0039,-0.0023,-0.003,-0.0067,-0.0046,-0.0038,-0.0051,-0.0156,-0.0165,-0.0105,-0.0105,-0.0075,-0.0095,-0.0093,-0.0091,0,-0.0147,-0.0166,-0.0029,0.0082,0.0129,0.0089,0.0186,0.0173,0.0048,0.004,-0.0068,-0.0188,-0.0193,-0.0126,-0.0122,-0.0086,0,0,0,-0.0152,-0.0101,0.004,0.0137,0.0231,0.0256,0.0224,0.0234,0.005,0.0118,-0.0038,-0.0052,-0.0133,-0.0342,-0.027,-0.0266,-0.0227,0,0]}]]